SL-16 R/B

Last updated on Mon Jun 22 2026 00:02:14 GMT+0000 (Coordinated Universal Time)

1 28353U 04021B 26171.27261573 -.00000171 00000+0 -64309-4 0 9994 2 28353 71.0005 17.2138 0007144 250.8793 109.1556 14.14607323137344
UTC large
Height (km)
Speed (km/s)
/
Latitude / Longitude
Inclination (degrees)
Orbital Period (minutes)
Azimuth
Elevation
Range (km)
Doppler Factor

Next 0 passes for location: London (51.5072 / 0.1276)

No passes found over London.
SL-16 R/B